Info: BCA BNI BRI MANDIRI CIMB ONLINE..- Hadir Game Baru! SUPER10! Mainkan sekarang di semua Internet Browser, Android dan IOS! HARAP SELALU MELIHAT REKENING AKTIF DI MENU DEPOSIT SEBELUM TRANSFER DANA..LINK ALTERNATIF WWW.PK88ONLINE.CLUB
REGISTER JACKPOT DEPOSIT REFERRAL DOWNLOAD PROMOSI CONTACT VIP
JACKPOT



   

Jackpot Winner Texas Poker
Kini Telah hadir Jackpot SUPER ROYAL FLUSH
Kini Telah hadir Jackpot 2000 (khusus table VIP keatas).

Ikutilah global jackpot yang tersedia di system kami, dengan system jackpot terbaru dan pertama di indonesia, anda dapat membeli jackpot dengan harga 100 rupiah saja dan menangkan hadiahnya hingga puluhan juta rupiah.

Jackpot bukanlah suatu keharusan untuk dibeli, namun kami memberikan suatu fitur tambahan untuk member tercinta dari www.pk88qq.com.

Terdapat tiga pilihan harga jackpot yang bisa anda beli yaitu :100,500,1000 dan 2000(khusus table VIP Keatas) rupiah.

Hadiah dari Multi jackpot system www.pk88qq.com

  1. full house x 10 harga jackpot yang anda beli.
      (contoH:anda membeli 1000 maka:1000 X10 = 10.000)
  2. four of kind x 250 harga jackpot yang anda beli
      (contoH:anda membeli 1000 maka:1000 X250 = 250.000)
  3. Straight flush x 1200
      (contoH:anda membeli 1000 maka:1000 X1200 = 1.200.000)
  4. Royal flush x 10000 harga jackpot yang anda beli
      (contoH:anda membeli 1000 maka:1000 X10000 = 10.000.000)
  5. SUPER ROYAL FLUSH x 30000 harga jackpot yang anda beli
      (contoH:anda membeli 1000 maka:1000 X30000 = 30.000.000)

Kondisi kartu

  1. full house adalah kondisi kartu dimana kartu anda dan kartu tengah dengan total 7 kartu bisa mendapatkan nilai 5 kartu dengan kombinasi 1 tris(three of kind) dan 1 pair, contoh 3 kartu 10 dan 2 kartu 5
  2. Four of kind adalah kondisi kartu dimana kartu anda dan kartu tengah dengan total 7 kartu bisa mendapatkan nilai 5 kartu dengan kombinasi 4 kartu yang sama jumlah dan 1 kartu apapun juga contoh anda mendapatkan 4 buah kartu angka 3 dan 1 kartu apapun.
  3. Straight flush adalah kondisi kartu dimana kartu anda dan kartu tengah dengan total 7 kartu bisa mendapatkan nilai 5 kartu dengan kombinasi seri / staright dengan kembang yang sama contoh : urutan kartu dari angka 5, 6, 7, 8 , 9 10 dengan kembang yg sama misalnya as hati
  4. Royal flush adalah kondisi kartu dimana kartu anda dan kartu tengah dengan total 7 kartu bisa mendapatkan nilai 5 kartu dengan kombinasi seri / staright dengan kembang yang sama tetapi kartu tersebut haruslah dimulai dari 10. contoh 10, Queen, Jack, King dan aces dengan kembang yang sama
  5. Super Royal flush adalah kondisi kartu dimana Kedua kartu anda digabung dengan 3 kartu pertama meja haruslah royal flush. contoh kartu anda10,Queen dan 3 kartu pertama meja adalah Jack, King dan aces dengan kembang yang sama

Demikian adalah penjelasan dari Multi Jackpot www.pk88qq.com terima kasih dan selamat bermain salam hoki dari kami


Jackpot Winner

TOP SUPER ROYAL FLUSH
No. Tanggal Nama Price Win
1 25/05 04:52 SONGONG21 Super Royal flush 15,000,000
2 25/05 03:00 WAMBE88 Super Royal flush 15,000,000
3 25/05 01:42 NUVO199 Super Royal flush 15,000,000
4 25/05 01:25 COPYWHIT3 Super Royal flush 6,000,000
5 25/05 00:47 D0LPI3ND Super Royal flush 15,000,000
TOP ROYAL FLUSH
No. Tanggal Nama Price Win
1 25/05 07:45 HEN_321 Royal flush 10,000,000
2 25/05 07:45 BAKOK420 Royal flush 10,000,000
3 25/05 07:32 INTERVI Royal flush 10,000,000
4 25/05 07:06 KP8899HKXV Royal flush 5,000,000
5 25/05 06:23 DIFA2007 Royal flush 5,000,000
TOP STRAIGHT FLUSH
No. Tanggal Nama Price Win
1 25/05 07:49 JPNDRSU10J Straight Flush 120,000
2 25/05 07:47 JIHAN012 Straight Flush 240,000
3 25/05 07:44 BANGSENG03 Straight Flush 240,000
4 25/05 07:38 GHOSAH Straight Flush 2,400,000
5 25/05 07:35 TEMPIK01 Straight Flush 240,000
LATEST JACKPOT
No. Tanggal Nama Price Win
1 25/05 07:49 C30ACD47 Full House 5,000
2 25/05 07:49 A82E09D7 Full House 2,000
3 25/05 07:49 MISLI222 Full House 1,000
4 25/05 07:49 DU1T_H4R4M Full House 5,000
5 25/05 07:49 LELEJUMBO8 Full House 20,000
6 25/05 07:49 LADUSIGH Full House 2,000
7 25/05 07:49 JPNDRSU10J Straight Flush 120,000
8 25/05 07:49 KETTI009 Four Of A Kind 25,000
9 25/05 07:49 JLBANK Full House 5,000
10 25/05 07:49 HAHALUCU Full House 2,000
11 25/05 07:49 RM808 Full House 10,000
12 25/05 07:49 GAZALI716 Full House 2,000
13 25/05 07:49 ARAMON Full House 2,000
14 25/05 07:49 BATEDOS99 Full House 10,000
15 25/05 07:49 T1KUZ05 Full House 2,000
16 25/05 07:49 RAJADOI Full House 5,000
17 25/05 07:49 YULI_900 Full House 1,000
18 25/05 07:49 EGH Full House 1,000
19 25/05 07:49 LAMBEUY777 Full House 5,000
20 25/05 07:49 MAHONS03 Full House 2,000
21 25/05 07:49 CH4NG3 Full House 5,000
22 25/05 07:49 PARTA97 Full House 500
23 25/05 07:49 CINTA1234 Full House 1,000
24 25/05 07:49 NFHSKHJCHD Full House 5,000
25 25/05 07:49 NOBOY88 Four Of A Kind 125,000
26 25/05 07:49 BELES_12 Full House 2,000
27 25/05 07:49 BANTU124 Four Of A Kind 12,500
28 25/05 07:49 ONYCC Full House 500
29 25/05 07:48 ANARIZKI Four Of A Kind 250,000
30 25/05 07:48 T0M801 Full House 5,000
31 25/05 07:48 HANOEM777 Full House 20,000
32 25/05 07:48 QQUF9MXW09 Full House 1,000
33 25/05 07:48 C4SABTG Four Of A Kind 50,000
34 25/05 07:48 JLBANK Full House 5,000
35 25/05 07:48 AAL03 Full House 2,000
36 25/05 07:48 AMMETAKOOO Full House 10,000
37 25/05 07:48 KUMENGERTI Full House 10,000
38 25/05 07:48 F481 Full House 2,000
39 25/05 07:48 HALE Full House 2,000
40 25/05 07:48 A98O788183 Full House 5,000
41 25/05 07:48 RAPHSODY88 Four Of A Kind 500,000
42 25/05 07:48 DWBTKIEM14 Full House 2,000
43 25/05 07:48 Q08AHFV530 Full House 5,000
44 25/05 07:48 MALAUNGCUI Full House 5,000
45 25/05 07:48 AKALOH Full House 5,000
46 25/05 07:48 LYCANN Full House 5,000
47 25/05 07:48 TIOSANTI89 Full House 2,000
48 25/05 07:48 GOBANG78 Full House 5,000
49 25/05 07:48 SUNGKOK96 Full House 2,000
50 25/05 07:48 Y4JH2JAVO7 Full House 5,000
Dewa.FM